User: anonymous   Login
Location: Unspecified
(0.0000°N, 0.0000°E)
Time: 00:45:32
(UTC+00:00)
Language:

STARLINK-3180 - Orbit

View from above orbital plane
View from above orbital plane
View from above satellite
View from above satellite

Ground track
Ground track

The orbit is defined by the following mean orbital elements,

1 51137U          26145.48877043 +.00000000 +00000-0 +86328-5 0 00001
2 51137  53.2139 314.3521 0001264 104.6085 255.5047 15.08831981    00
Epoch (UTC): 25 May 2026 11:43:49
Eccentricity: 0.0001264
inclination: 53.2139°
perigee height: 539 km
apogee height: 541 km
right ascension of ascending node: 314.3521°
argument of perigee: 104.6085°
revolutions per day: 15.08831981
mean anomaly at epoch: 255.5047°

The dashed part of the orbit path shows where the satellite is in the earth's shadow,  

DLR